Weather Roundup
Issued by NWS

Home | Current Version | Previous Version | Graphics & Text | Print | Product List | Glossary Off
Versions: 1 2 3 4 5 6 7 8 9 10 11 12 13 14 15 16 17 18 19 20 21 22 23 24 25 26 27 28 29 30 31 32 33 34 35 36 37 38 39 40 41 42 43 44 45 46 47 48 49 50

000
NZUS93 KARX 192310
HRRWXR

CURRENT HOURLY OBSERVATIONS ACROSS
MUCH OF THE UPPER MISSISSIPPI VALLEY
NATIONAL WEATHER SERVICE LA CROSSE WI
600 PM CDT SUN OCT 19 2014


...SOUTHEAST MINNESOTA...


CITY           SKY/WX    TMP DP  RH WIND       PRES   REMARKS
ROCHESTER      CLEAR     64  45  49 SW13      29.83R
ROCHESTER/MAYO FAIR      66  41  39 W10G21    29.81R
WINONA         PTCLDY    63  45  51 SW5       29.80F
AUSTIN         CLEAR     64  46  52 W9        29.83S
ALBERT LEA     CLEAR     66  45  45 SW7       29.83R
DODGE CENTER   CLEAR     63  46  55 W9        29.82S
PRESTON        CLEAR     63  44  51 SW12      29.83F
OWATONNA       CLEAR     66  43  42 SW5       29.81S
FARIBAULT      CLEAR     64  46  52 SW3       29.80F
$$

...ELSEWHERE IN MINNESOTA...


CITY           SKY/WX    TMP DP  RH WIND       PRES   REMARKS
MINNEAPOLIS    PTCLDY    68  44  42 W8        29.77S
INTNL FALLS    MOCLDY    53  41  63 N8        29.77R
DULUTH         PTCLDY    61  42  49 W10       29.72R
RED WING       PTCLDY    66  43  42 W6        29.77S
REDWOOD FALLS  CLEAR     70  38  31 NW10      29.82R
MANKATO        CLEAR     70  43  37 NW8       29.80S
WORTHINGTON    CLEAR     68  39  34 NW10      29.87S
FAIRMONT       CLEAR     70  43  37 W12       29.83S
$$

...SOUTHWEST WISCONSIN...


CITY           SKY/WX    TMP DP  RH WIND       PRES   REMARKS
LA CROSSE      PTCLDY    62  45  53 S8        29.81F
PRAIRIE DU CHI PTCLDY    60  42  51 S8        29.88S
BOSCOBEL       CLEAR     60  43  53 SW13      29.89R
LONE ROCK      PTCLDY    61  42  49 SW8       29.89R
PLATTEVILLE    CLEAR     56  44  63 S8        29.91F
FORT MC COY    PTCLDY    58  43  56 SW6       29.84F
CAMP DOUGLAS   PTCLDY    58  46  63 SW9       29.84F
VIROQUA        FAIR      56  44  64 S8        29.86F
WIS DELLS      PTCLDY    55  41  58 SW13G20   29.87F
$$

...ELSEWHERE IN WISCONSIN...


CITY           SKY/WX    TMP DP  RH WIND       PRES   REMARKS
MILWAUKEE      MOCLDY    54  40  59 SW15G23   29.93F
MADISON        MOCLDY    56  42  59 S13       29.89F
GREEN BAY      MOCLDY    54  43  66 SW13G20   29.84S
EAU CLAIRE     PTCLDY    60  45  57 SW6       29.78S
BLACK RVR FLS  LGT RAIN  60  44  54 SW9       29.81S
MEDFORD        PTCLDY    51  44  76 S5        29.78F
WAUSAU         MOCLDY    53  43  68 S6        29.79F
WIS RAPIDS     MOCLDY    57  44  62 SW12      29.83F
MARSHFIELD     MOCLDY    56  44  64 SW10      29.80F
RICE LAKE      CLEAR     59  43  56 SW6       29.79R
$$

...NORTHEAST IOWA...


CITY           SKY/WX    TMP DP  RH WIND       PRES   REMARKS
DECORAH        PTCLDY    61  46  59 SW12G22   29.85F
MASON CITY     CLEAR     65  47  52 SW12      29.86F
CHARLES CITY   CLEAR     64  45  48 SW9G17    29.86F
OELWEIN        CLEAR     61  46  59 SW14      29.90S
$$

...ELSEWHERE IN IOWA...


CITY           SKY/WX    TMP DP  RH WIND       PRES   REMARKS
DES MOINES     PTCLDY    66  46  48 SW10      29.93S
IOWA CITY      MOCLDY    60  44  55 S8        29.95F
FORT DODGE     CLEAR     64  46  52 SW9       29.89F
$$

...NORTHERN ILLINOIS...


CITY           SKY/WX    TMP DP  RH WIND       PRES   REMARKS
CHICAGO-OHARE  CLOUDY    52  41  66 S12       29.98F
CHICAGO-MIDWAY MOCLDY    54  42  64 S10       30.00F
MOLINE         CLOUDY    59  42  53 SW9       29.96F
ROCKFORD       MOCLDY    56  41  57 S10       29.97F
PEORIA         MOCLDY    59  42  53 SW10      30.01F
$$

NOTE: "FAIR" INDICATES FEW OR NO CLOUDS BELOW 12,000 FEET WITH NO
SIGNIFICANT WEATHER AND/OR OBSTRUCTIONS TO VISIBILITY. WIND
SPEEDS ARE IN MILES-PER-HOUR.



USA.gov is the U.S. government's official web portal to all federal, state and local government web resources and services.